STARLINK-35024

Last updated on Tue Sep 16 2025 00:02:07 GMT+0000 (Coordinated Universal Time)

1 65410U 25192G 25258.58341435 -.01476785 00000+0 -15564-1 0 9991 2 65410 53.1597 338.1267 0001181 70.2073 155.6577 15.66411021 3622
UTC large
Height (km)
Speed (km/s)
/
Latitude / Longitude
Inclination (degrees)
Orbital Period (minutes)
Azimuth
Elevation
Range (km)
Doppler Factor

Next 0 passes for location: London (51.5072 / 0.1276)

Sorry there are no passes over London.